Live-Position
3D-Globus wird geladen...
Über OneWeb SL0683
Group: 3 satellites
Beschreibung wird geladen...
Nächste Überflüge
Passes for default location (London). Set your location on the main map for personalized predictions.
Höhenverlauf
Loading altitude history...
No altitude history available
Zweizeiliger Elementsatz
1 56719U 23068K 26110.40396198 -.00000049 00000-0 -16350-3 0 9990
2 56719 87.8953 270.7152 0001526 97.8833 262.2471 13.15547244141822
Epoch: 20. Apr. 2026 •
Age: 7 hours
Aktueller Status
Höhe 1228.4 km
Geschwindigkeit 7.24 km/s
Subsatellitenpunkt -67.65°S,
0.6°E
Startdatum 20. Mai 2023
Alter 2.9 years
Typ internet
Startgruppe
Unknown Vehicle •
OneWeb Launch 19 •
16 satellites
OneWeb SL0561
56710
OneWeb SL0668 56711
OneWeb SL0676 56712
OneWeb SL0677 56713
OneWeb SL0678 56714
OneWeb SL0679 56715
OneWeb SL0680 56716
OneWeb SL0681 56717
OneWeb SL0682 56718
OneWeb SL0684 56720
OneWeb SL0686 56721
OneWeb SL0694 56722
OneWeb SL0696 56723
OneWeb SL0703 56724
OneWeb SL0721 JoeySat 56725
Technische Details
Klassifizierung Payload
Masse 148.00 kg
Trockenmasse 140.00 kg
Gesamtmasse 148.00 kg
Länge 1.30 m
Durchmesser 1.00 m
Spannweite 5.00 m
Form Trapezoid+2 pan
Hersteller ONEWUS
Bus-Typ ARROW
Phasenstatus In Orbit
Besitzer/Staat ONEWEBN/UK
Most Searched
Loading...